AirNav   Air Wisconsin pilot careers
 
 346 users online  

21F Jacksboro Municipal Airport
Jacksboro, Texas, USA

GOING TO JACKSBORO?


FAA INFORMATION EFFECTIVE 08 NOVEMBER 2018

Location

FAA Identifier: 21F
Lat/Long: 33-13-40.3000N / 098-08-47.2000W
33-13.671667N / 098-08.786667W
33.2278611 / -98.1464444
(estimated)
Elevation: 1062 ft. / 324 m (estimated)
Variation: 07E (1985)
From city: 1 mile NE of JACKSBORO, TX
Time zone: UTC -6 (UTC -5 during Daylight Saving Time)
Zip code: 76458

Airport Operations

Airport use: Open to the public
Activation date: 03/1968
Control tower: no
ARTCC: FORT WORTH CENTER
FSS: FORT WORTH FLIGHT SERVICE STATION
NOTAMs facility: FTW (NOTAM-D service available)
Attendance: IREG
Wind indicator: lighted
Segmented circle: yes
Lights: SS-SR
Beacon: white-green (lighted land airport)
Operates sunset to sunrise.

Airport Communications

CTAF: 122.9
WX AWOS-3 at XBP (16 nm E): 119.225 (940-683-8027)

Nearby radio navigation aids

VOR radial/distance  VOR name  Freq  Var
UKWr215/24.6BOWIE VORTAC117.1506E
MQPr337/31.0MILLSAP VORTAC117.7009E

 
NDB name  Hdg/Dist  Freq  Var  ID
GRAHAM071/18.037107EGHX --. .... -..-
SCOTLAND148/37.434405ESKB ... -.- -...

Airport Services

Fuel available: 100LL
Parking: tiedowns
Airframe service: MAJOR
Powerplant service: MAJOR
Bottled oxygen: NONE
Bulk oxygen: NONE

Runway Information

Runway 17/35

Dimensions: 3220 x 75 ft. / 981 x 23 m
Surface: asphalt, in excellent condition
Weight bearing capacity: 
Single wheel: 4.0
Runway edge lights: medium intensity
RUNWAY 17  RUNWAY 35
Latitude: 33-13.936885N33-13.406852N
Longitude: 098-08.765978W098-08.805815W
Elevation: 1022.0 ft.1062.0 ft.
Gradient: 1.2% UP1.0%
Traffic pattern: leftleft
Runway heading: 177 magnetic, 184 true357 magnetic, 004 true
Markings: basic, in good conditionbasic, in good condition
Obstructions: 61 ft. pole, 1393 ft. from runway, 19:1 slope to clear
6-8 FT BRUSH 0-200 FT FM THR 63 FT R. GND DROPS TO LAKE AT 140 FT,+12 FT BRUSH 39-200 FT FM THR; 108 FT LEFT.
17 ft. trees, 200 ft. from runway, 33 ft. left of centerline
6-15 FT BRUSH 0-200 FT FM THR 33-125 FT L, 10 FT TREE 71 FT FM THR; 108 FT RIGHT.

Airport Ownership and Management from official FAA records

Ownership: Publicly-owned
Owner: CITY OF JACKSBORO
112 WEST BELKNAP
JACKSBORO, TX 76458
Phone 940-567-6321
Manager: JACKY HALL
112 WEST BELKNAP
JACKSBORO, TX 76458
Phone 940-567-6321
MIKE SMITH, CITY ADMINISTRATOR, CITY OF JACKSBORO.

Airport Operational Statistics

Aircraft based on the field: 10
Single engine airplanes: 8
Multi engine airplanes: 1
Ultralights: 1
    
Aircraft operations: avg 29/week *
67% local general aviation
33% transient general aviation
* for 12-month period ending 08 February 2018

Additional Remarks

AIRPORT ACCESS GATE LOCKED. COMBINATION IS 0580.
+ 6 FT OPEN DRAINAGE DITCH NEAR RWY 18 THR AND 81 FT EAST OF CNTRLN ON BOTH SIDES OF TWY.
+5 FT OPEN DRAINAGE DITCH SOUTH OF RWY 18 THR AND 84 FT EAST OF CNTRLN ON BOTH SIDES OF TWY.
BIRDS ON AND INVPF OF ARPT.
+ 6 FT OPEN DRAINAGE DITCH NEAR THR AND 81 FT EAST OF CNTRLN ON BOTH SIDES OF TWY.
+5 FT OPEN DRAINAGE DITCH SOUTH OF THR AND 84 FT EAST OF CNTRLN ON BOTH SIDES OF TWY.
COURTESY CAR AVBL IN HNGR S-5. LOCK COMBINATION IS 6666.

Instrument Procedures

There are no published instrument procedures at 21F.

Some nearby airports with instrument procedures:

KXBP - Bridgeport Municipal Airport (16 nm E)
KRPH - Graham Municipal Airport (22 nm W)
F35 - Possum Kingdom Airport (23 nm SW)
KMWL - Mineral Wells Airport (27 nm S)
KLUD - Decatur Municipal Airport (28 nm E)
 
Loc | Ops | Rwys | IFR | FBO | Links
Com | Nav | Svcs | Stats | Notes


 
Area around 21F (Jacksboro Municipal Airport)
 
Road maps at: MapQuest Bing Google
 
Aerial photo
WARNING: Photo may not be current or correct
Aerial photo of 21F (Jacksboro Municipal Airport)
Photo courtesy of Civil Air Patrol
Photo taken 16-Sep-2006

Do you have a better or more recent aerial photo of Jacksboro Municipal Airport that you would like to share? If so, please send us your photo.

 
Sectional chart

 
Airport distance calculator
Flying to Jacksboro Municipal Airport? Find the distance to fly.

From to 21F

Sunrise and sunset
Times for 19-Nov-2018
 Local
(UTC-6)
 Zulu
(UTC)
Morning civil twilight06:4212:42
Sunrise07:0813:08
Sunset17:2823:28
Evening civil twilight17:5423:54

Current date and time
Zulu (UTC)  19-Nov-2018 10:47:51
Local (UTC-6)  19-Nov-2018 04:47:51
 
METAR
KXBP 
16nm E 
191035Z AUTO 23004KT 10SM CLR 00/00 A3024 RMK AO2 T10051005 PNO
KRPH 
22nm W 
191035Z AUTO 00000KT 10SM OVC031 01/00 A3020 RMK AO2 T00070001
KMWL 
27nm S 
190953Z AUTO 32004KT 10SM BKN042 00/M01 A3020 RMK AO2 SLP228 T00001011
KLUD 
28nm E 
118.22 940-927-2365
191035Z AUTO 00000KT 7SM CLR 00/M02 A3020 RMK AO2 T10051018
K0F2 
29nm NE 
191035Z AUTO 00000KT 10SM OVC035 M01/M02 A3021 RMK AO2 T10101019
TAF
KAFW 
45nm E 
190855Z 1909/2006 33007KT P6SM BKN050 FM191600 35008KT P6SM FEW250
KNFW 
45nm SE 
1907/2007 VRB06KT 9999 SCT025 SCT250 QNH3022INS TEMPO 1907/1910 BKN020 OVC200 BECMG 1911/1913 VRB06KT 9999 FEW030 SCT250 QNH3020INS TEMPO 1913/1919 34008KT AUTOMATED SENSOR METWATCH 1907 TIL 1912 T15/1911Z T08/1921Z FN00178
KFTW 
46nm SE 
190855Z 1909/2006 33007KT P6SM BKN050 FM191600 35008KT P6SM FEW250
KSPS 
49nm N 
190520Z 1906/2006 25005KT P6SM SCT250 FM192200 34011KT P6SM SCT250
NOTAMs
Click for the latest NOTAMs
NOTAMs are issued by the DoD/FAA and will open in a separate window not controlled by AirNav.

 

 
 

FBO, Fuel Providers, and Aircraft Ground Support

  
 Business Name 
 
 Contact 
 
 Services / Description 
 
Fuel Prices
 
Comments
  
City of Jacksboro (self-serve fuel) 940-567-6321
940-229-8084
[web site]
[email]
Airport management, Aviation fuel, Courtesy transportation

More info about City of Jacksboro (self-serve fuel)
Avfuel
100LL
SS $3.95 
 Updated 06-Nov-2018
 
   write
SS=Self service
Update Fuel Prices
 

Aviation Businesses, Services, and Facilities

  
 Business Name 
 
 Contact 
 
 Services / Description 
 
Distance
 
Comments
  
Mike's Aircraft Services 940-452-5958
[web site]
[email]
Aircraft maintenance

More info about Mike's Aircraft Services
on airport  
   write
 

Would you like to see your business listed on this page?

 If your business provides an interesting product or service to pilots, flight crews, aircraft, or users of the Jacksboro Municipal Airport, you should consider listing it here.  To start the listing process, click on the button below
 
Add a business
 

Other Pages about Jacksboro Municipal Airport

Update a link
 
Copyright © AirNav, LLC. All rights reserved. Privacy Policy  Contact